Weather in Krichev

Belarus     53°41′44″N   31°42′24″E
temp.,
°C
wind,
m/s
gust,
m/s
humid.,
%
clouds,
%
prec.,
mm/h
press.,
hPa
HPBL,
m
28 july, wed
wed2800:00+18sse2289100 2.2 101625
03:00+18se41093100 2.8 1014244
06:00+18sse4896100 5.4 1013301
09:00+20sw358893 5.5 1012539
12:00+24wsw576890 0.3 10121204
15:00+26wnw675914 0.7 10111316
18:00+27w58575 0.0 10101511
21:00+22wnw23677 0.1 101046
29 july, thu
thu2900:00+19w238299 0.0 101031
03:00+18w3484100 0.1 101052
06:00+18w33870 0.0 101067
09:00+24w346588 0.0 1009367
12:00+28wsw34495 0.0 10091349
15:00+30wsw354068 0.0 10082241
18:00+28sw8850100 0.3 10051153
21:00+18wnw4799100 14.3 1006343
30 july, fri
fri3000:00+18nw3498100 11.4 1007100
03:00+18wnw3698100 11.6 1007204
06:00+17wnw259691 0.0 1008145
09:00+21nw46770 0.0 1008399
12:00+24wnw45585 0.0 10091059
15:00+25wsw355394 0.0 10081042
18:00+24w2562100 0.0 1007352
21:00+19w33670 0.0 100840
31 july, sat
sat3100:00+20wsw2358100 0.0 100848
03:00+19ssw356766 0.0 100880
06:00+16wsw410790 0.0 1008222
09:00+21wsw456586 0.0 1008418
12:00+25wsw584840 0.0 10091524
15:00+27w58425 0.0 10081827
18:00+27sw354939 0.0 1007857
21:00+23s41067100 0.1 1007259
1 august, sun
sun100:00+19e2293100 2.7 100754
03:00+17sse3696100 5.8 1005134
06:00+17w3697100 0.2 1005244
09:00+20w678660 0.6 1007732
12:00+24wnw57580 0.1 10081436
15:00+26w56469 0.1 10092072
18:00+24w4655100 0.0 1009652
21:00+19wnw22695 0.0 100911